sat.trackr.live / text

‹ back to catalog

STARLINK-3460

NORAD 51755 · 2022-016AT

PAYLOAD ACTIVE UNKNOWN

§ Identity

Operator
Country
US
Launch date
2022-02-21
Launch site
AFETR
Launch vehicle
Mass (kg)
RCS (m²)

Purposes: comms

External: N2YO · Heavens-Above · Gunter

§ Orbital elements

Epoch: 2026-09-20T04:42:35.669088Z

Period
93.85 min
Inclination
53.1580°
Eccentricity
0.0001086
Mean motion
15.34404399 rev/d
Perigee alt
461.9 km
Apogee alt
463.4 km
Semi-major
6,840.8 km
B*
3.3032e-4
RAAN
141.4912°
Arg perigee
113.6574°
Mean anomaly
246.4542°
Rev number
25,326

§ Raw data

STARLINK-34601 51755U 22016AT  26263.19624617  .00010802  00000+0  33032-3 0  99932 51755  53.1580 141.4912 0001086 113.6574 246.4542 15.34404399253268

JSON: /api/v1/satellites/51755 · /tle

For live sub-satellite position, see the globe view (requires WebGL).

§ Visibility from observer

Set your observer location to see the next 7 days of passes ≥ 10°. The values pass through the URL so the page stays shareable.

No JS? Fill the form by hand. The geolocation button needs JavaScript.